Location: Napier
(39.4830°S, 176.9170°E)
Time: 00:50:05
(UTC+13:00)

Cosmos 1242 Rocket - Pass Details

Date: 24 January 2019
Orbit: 449 x 490 km, 81.2° (Epoch: 22 February)

Event Time Altitude Azimuth Distance (km) Brightness Sun altitude
Rises 21:19:24 0° 172° (S) 2,606 6.6 -8.1°
Reaches altitude 10° 21:22:09 10° 150° (SSE) 1,716 5.4 -8.6°
Maximum altitude 21:24:39 17° 108° (ESE) 1,335 4.4 -9.0°
Enters shadow 21:26:42 12° 72° (ENE) 1,592 4.6 -9.3°
